Regional Weather Roundup
Issued by NWS

Home | Current Version | Previous Version | Graphics & Text | Print | Product List | Glossary On
Versions: 1 2 3 4 5 6 7 8 9 10 11 12 13 14 15 16 17 18 19 20 21 22 23 24 25 26 27 28 29 30 31 32 33 34 35 36 37 38 39 40 41 42 43 44 45 46 47 48 49 50
000
ASUS45 KCYS 200510
RWRWY

WYOMING REGIONAL WEATHER ROUNDUP
NATIONAL WEATHER SERVICE CHEYENNE WY
1100 PM MDT WED JUL 19 2017

NOTE:  "FAIR" INDICATES FEW OR NO CLOUDS BELOW 12,000 FEET
WITH NO SIGNIFICANT WEATHER AND/OR OBSTRUCTIONS TO VISIBILITY.

WYZ001-200600-
YELLOWSTONE NATIONAL PARK

CITY           SKY/WX    TMP DP  RH WIND       PRES   REMARKS
LK YELLOWSTONE   N/A     50  37  61 NW3       30.34F
W YELLOWSTONE  NOT AVBL

$$
WYZ002>013-054>058-071-098>099-200600-
NORTHERN WYOMING

CITY           SKY/WX    TMP DP  RH WIND       PRES   REMARKS
JACKSON        FAIR      57  39  51 NE3       30.22S
CODY           FAIR      71  44  37 SW5       30.11F
GREYBULL       FAIR      79  40  24 SW7       30.00R
WORLAND        FAIR      84  50  30 S21G31    30.03R
SHERIDAN       FAIR      65  53  65 CALM      30.05F
BUFFALO        FAIR      73  46  38 S5        30.15S
GILLETTE       FAIR      74  57  55 E6        30.11S
HULETT         FAIR      73  54  49 E8        30.14S
NEWCASTLE      FAIR      79  50  36 NE13      30.11R

$$
WYZ014>020-022>026-101>103-200600-
CENTRAL WYOMING

CITY           SKY/WX    TMP DP  RH WIND       PRES   REMARKS
BIG PINEY      CLOUDY    67  50  54 S10       30.29R
PINEDALE       FAIR      64  48  55 SE7       30.32R
DUBOIS         FAIR      64  32  29 NW5       30.28R
LANDER         FAIR      78  49  35 SW17      30.10S
RIVERTON       FAIR      72  55  55 S20G29    30.14R
CASPER         FAIR      70  53  54 W21       30.20R
DOUGLAS        FAIR      74  52  46 MISG      30.19R

$$
WYZ021-027>030-104>119-200600-
SOUTHERN WYOMING

CITY           SKY/WX    TMP DP  RH WIND       PRES   REMARKS
EVANSTON       FAIR      64  49  57 S8        30.29S
KEMMERER         N/A     68  43  40 SE6       30.31S
FORT BRIDGER   FAIR      65  51  58 S9        30.31S
ROCK SPRINGS   FAIR      66  49  54 SW7       30.29R
RAWLINS        CLOUDY    63  53  70 E3        30.35S
SARATOGA       LGT RAIN  61  61 100 S9        30.37S
LARAMIE        CLOUDY    62  53  72 N5        30.37S
CHEYENNE       FAIR      72  52  49 NW17G23   30.26R
TORRINGTON     LGT RAIN  68  62  81 N25       30.17R
PINE BLUFFS    FAIR      70  54  56 N15G21    30.20R

$$



USA.gov is the U.S. government's official web portal to all federal, state and local government web resources and services.